FENGYUN 1C DEB, 29896

Orbit data source: Space-Track

FENGYUN 1C DEB, 29896 is space debris in SSO originally from a launch on Mon, 10 May 1999 UTC launched from the Taiyaun Space Center, China (TSC). Fengyun 1C debris stems from the Chinese weather satellite Fengyun-1C, which was intentionally destroyed by a Chinese anti-satellite missile in 2007. This event dramatically increased the amount of space debris, with thousands of trackable fragments posing hazards to satellites and human spaceflight. The Fengyun 1C debris cloud has become a focal point in discussions about space sustainability and the need for international regulations to prevent the creation of new debris.

Loading next visibility...
Identifier
29896, 1999-025GS
Orbit
SSO
Country
Flag of CNCN / PRC
Related business
Manufacturer
Unknown
Mission
Spacecraft
Bus & Motor
Unknown
Mass
Unknown
Launch date (UTC)
1999-05-10 (27 years ago)
Launch vehicle
Unknown
Launch site
Taiyaun Space Center, China (TSC)
Object type
Payload
Rocket body
Debris
Shape & HBR
Unknown shape, 0.1 m
Radar Cross Section
Small (<0.1 m²)

Expand to show TLE details & history
Last TLE update: 1 day ago

TLE from 1 day ago
0 FENGYUN 1C DEB
1 29896U 99025GS  25353.26026399  .00000525  00000-0  57129-3 0  9993
2 29896  99.4225 244.8083 0239964  85.1485  42.3134 13.65375237941317
Epoch: 2025-12-19T06:14Z
TLE epoch observation values (Epoch: 2025-12-19T06:14:46.808Z)
Latitude
49.81179°
Longitude
-105.72117°
Altitude
894.796 km
Speed
7.474 km/s
True Right ascension
05h 04m 18s
True Declination
49° 38' 43"
Sunlit
Object was in full shadow at epoch
Visualization orbit readout
Latitude
Unknown
Longitude
Unknown
Altitude
Unknown
Speed
Unknown
Apparent Right ascension
Unknown
Apparent Declination
Unknown
Sunlit
N/A
Visualization observer readout
Local Sidereal Time
09:08:09
Azimuth
Unknown
Elevation
Unknown
Doppler factor
Unknown
Orbital elements
Apogee altitude
1,190.858 km
Perigee altitude
836.113 km
Semi-major axis
7,391.623 km
Eccentricity
0.024
Inclination
99.4225°
RAAN
244.8083°
Arg. of periapsis
85.1485°
True anomaly
44.20612°
Mean anomaly
42.3134°
Eccentric anomaly
43.25555°
Mean motion
3.41534 °/min
Orbital period
105.41 mins
BSTAR
0.00057129
Loading maneuver chart data...
Computing Atmospheric mass density...

Documentation

Showing up to 5 results
|